Tracking 34141 objects as of 18-May-2026
HD Live streaming from Space Station
objects crossing your sky now

AE2A

Track AE2A now!
10-day predictions


NORAD ID: 64591
Int'l Code: 2025-135BR
Perigee: 579.0 km
Apogee: 588.7 km
Inclination: 97.8 °
Period: 96.2 minutes
Semi major axis: 6954 km
RCS: Unknown
Launch date: June 23, 2025
Source: Japan (JPN)
Launch site: AIR FORCE WESTERN TEST RANGE (AFWTR)
Your satellite tracking list
Your tracking list is empty




NASA's NSSDC Master Catalog

Two Line Element Set (TLE):
1 64591U 25135BR  26138.54428426  .00003610  00000-0  32005-3 0  9999
2 64591  97.7666 253.9629 0006982  78.4451 281.7554 14.96830575 49528
Source of the keplerian elements: AFSPC